Погода в Лубанго

Ангола     14°54′55″S   13°29′48″E
темп.,
°C
ветер,
м/с
пор.,
м/с
влажн.,
%
обл.,
%
осадки,
мм/ч
давл.,
гПа
погр.,
м
25 июля, вс
вс2501:00+11юв22200 0.0 102215
04:00+9вюв25230 0.0 102266
07:00+9в26300 0.0 102392
10:00+19всв79250 0.0 1021884
13:00+23всв43170 0.0 10171761
16:00+23вюв32140 0.0 10152077
19:00+15вюв11250 0.0 101911
22:00+13ю22290 0.0 102215
26 июля, пн
пн2601:00+12ююв11350 0.0 102110
04:00+11всв12440 0.0 102014
07:00+10всв38500 0.0 1022179
10:00+18всв68320 0.0 1021695
13:00+22всв43235 0.0 10181845
16:00+23в33215 0.0 10152196
19:00+15юв113319 0.0 101911
22:00+14ююв11345 0.0 102010
27 июля, вт
вт2701:00+13юв013611 0.0 101910
04:00+11в12403 0.0 101913
07:00+11св12385 0.0 102034
10:00+19всв44244 0.0 1019651
13:00+23всв22185 0.0 10151983
16:00+24юз22175 0.0 10132513
19:00+16юз223231 0.0 101721
22:00+14ююз22355 0.0 101914
28 июля, ср
ср2801:00+13юз12370 0.0 101811
04:00+12ююв11384 0.0 101810
07:00+12в11364 0.0 101911
10:00+21всв34180 0.0 1018961
13:00+24в32143 0.0 10142247
16:00+24юв11142 0.0 10122642
19:00+15юз333071 0.0 101728
22:00+14ююз223436 0.0 101913
29 июля, чт
чт2901:00+13ю113228 0.0 101810
04:00+12юв113741 0.0 101910
07:00+11в24346 0.0 102152
10:00+20в691735 0.0 1019850
13:00+24в541486 0.0 10162170
16:00+23в43139 0.0 10152386
19:00+17всв2320100 0.0 101839
22:00+15ююв2223100 0.0 102016